#timestamp,LO_Frequency,Hit,StdDev 
1514815215.1,286047001.4,N
1514815235.8,286047002.5,N
1514815255.7,286047001.5,N
1514815275.5,286047000.6,N
1514815295.3,286046999.8,N
1514815315.2,286047001.7,N
1514815335.0,286047002.9,N
1514815335.9,286047002.9,N
1514815355.7,286047007.6,Y
1514815375.6,286047000.2,P
1514815395.4,286047000.4,N
1514815415.2,286047002.3,N
1514815435.1,286047001.1,N
1514815436.0,286047001.1,N
1514815455.8,286046995.3,Y
1514815475.6,286046997.8,P
1514815495.5,286046998.1,N
1514815515.3,286047000.3,N
1514815535.1,286047004.2,N
1514815555.9,286047002.6,N
1514815575.7,286047001.3,N
1514815595.5,286047005.9,N
1514815615.4,286047007.3,N
1514815635.2,286047003.2,N
1514815655.0,286047003.6,N
1514815655.9,286047003.6,N
1514815675.8,286047004.9,N
1514815695.6,286047003.9,N
1514815715.4,286047002.6,N
1514815735.3,286047001.3,N
1514815755.1,286047004.0,N
1514815756.0,286047004.0,N
1514815775.8,286047002.5,N
1514815795.7,286047003.6,N
1514815815.5,286047005.7,N
1514815835.3,286047001.6,N
1514815855.1,286047003.2,N
1514815875.9,286046999.8,N
1514815895.7,286046996.6,N
1514815915.5,286047002.8,N
1514815935.4,286047004.0,N
1514815955.2,286047003.8,N
1514815975.0,286047002.5,N
1514815975.9,286047002.5,N
1514815995.8,286047002.8,N
1514816015.6,286047002.8,N
1514816035.4,286046999.3,N
1514816055.3,286046996.2,N
1514816075.1,286046996.1,N
1514816076.0,286046996.1,N
1514816095.8,286046996.6,N
1514816115.7,286046997.3,N
1514816135.5,286046999.1,N
1514816155.3,286047000.7,N
1514816175.1,286046999.5,N
1514816195.9,286046997.9,N
1514816215.7,286046996.3,N
1514816235.5,286046998.0,N
1514816255.4,286046997.8,N
1514816275.2,286047000.9,N
1514816295.0,286046998.6,N
1514816295.9,286046998.6,N
1514816315.8,286046995.2,N
1514816335.6,286046998.8,N
1514816355.4,286046999.6,N
1514816375.3,286046995.9,N
1514816395.1,286046995.4,N
1514816396.0,286046995.4,N
1514816415.8,286046993.8,N
1514816435.7,286046997.9,N
1514816455.5,286046997.9,N
1514816475.3,286046999.1,N
1514816495.1,286047000.4,N
1514816515.9,286046998.4,N
1514816535.7,286047003.6,N
1514816555.5,286047001.9,N
1514816575.4,286047006.9,Y
1514816595.2,286047011.7,P
1514816615.0,286047011.9,N
1514816615.9,286047011.9,N
1514816635.8,286047010.6,N
1514816655.6,286047008.4,N
1514816675.4,286047008.9,N
1514816695.3,286047005.1,N
1514816715.1,286047006.6,N
1514816716.0,286047006.6,N
1514816735.8,286047005.3,N
1514816755.7,286047007.5,N
1514816775.5,286047009.1,N
1514816795.3,286047009.5,N
1514816815.2,286047013.5,Y
1514816835.9,286047005.3,P
1514816855.7,286047005.7,P
1514816875.6,286047007.4,P
1514816895.4,286047008.3,Y
1514816915.2,286047001.9,P
1514816935.1,286046998.8,N
1514816936.0,286046998.8,N
1514816955.8,286046997.8,N
1514816975.6,286046993.7,N
1514816995.5,286046991.9,N
1514817015.3,286046991.6,N
1514817035.1,286046987.6,N
1514817055.8,286046985.4,N
1514817075.7,286046985.1,N
1514817095.5,286046980.4,N
1514817115.3,286046979.3,N
1514817135.2,286046978.3,N
1514817155.9,286046972.7,Y
1514817175.7,286046977.5,P
1514817195.6,286046980.4,N
1514817215.4,286046977.2,P
1514817235.2,286046972.6,Y
1514817255.1,286046992.7,P
1514817256.0,286046992.7,N
1514817275.8,286046992.8,N
1514817295.6,286046990.1,N
1514817315.5,286046987.1,N
1514817335.3,286046987.6,Y
1514817355.1,286046998.3,P
1514817375.9,286047000.9,N
1514817395.7,286047001.2,N
1514817415.5,286046999.5,N
1514817435.4,286046995.0,N
1514817455.2,286046997.6,N
1514817475.0,286046998.8,N
1514817475.9,286046998.8,N
1514817495.8,286047000.1,N
1514817515.6,286047002.2,N
1514817535.4,286047000.3,N
1514817555.2,286047002.1,N
1514817575.1,286047000.1,N
1514817576.0,286047000.1,N
1514817595.8,286047005.5,N
1514817615.6,286047003.6,N
1514817635.5,286047001.8,N
1514817655.3,286047001.4,N
1514817675.1,286047001.4,N
1514817695.9,286047003.8,N
1514817715.7,286047002.1,N
1514817735.5,286047004.7,N
1514817755.4,286047007.4,N
1514817775.2,286047008.2,N
1514817795.0,286047011.4,Y
1514817795.9,286047011.4,P
1514817815.8,286047016.5,P
1514817835.6,286047018.4,N
1514817855.4,286047020.7,Y
1514817875.3,286047012.3,P
1514817895.1,286047007.8,P
1514817896.0,286047007.8,P
1514817915.8,286047013.1,Y
1514817935.7,286047005.1,P
1514817955.5,286047007.9,P
1514817975.3,286047010.7,P
1514817995.2,286047012.4,Y
1514818015.9,286047000.1,P
1514818035.7,286046999.7,N
1514818055.6,286046998.8,N
1514818075.4,286046997.8,N
1514818095.2,286046998.0,N
1514818115.1,286046996.7,N
1514818116.0,286046996.7,N
1514818135.8,286046994.0,N
1514818155.6,286046994.3,N
1514818175.5,286046992.9,N
1514818195.3,286046990.5,N
1514818215.1,286046989.7,N
1514818235.8,286046989.1,N
1514818255.7,286046989.8,N
1514818275.5,286046986.9,N
1514818295.3,286046987.8,N
1514818315.2,286046988.6,N
1514818335.9,286046989.2,N
1514818355.7,286046990.3,N
1514818375.6,286046988.6,N
1514818395.4,286046988.6,N
1514818415.2,286046987.7,N
1514818435.0,286046985.0,N
1514818436.0,286046985.0,N
1514818455.8,286046982.1,Y
1514818475.6,286046993.8,P
1514818495.5,286046996.4,P
1514818515.3,286046996.0,N
1514818535.1,286046993.8,Y
1514818555.9,286046999.3,P
1514818575.7,286046999.1,N
1514818595.5,286046997.8,N
1514818615.3,286046995.9,N
1514818635.2,286046995.8,N
1514818655.0,286046993.3,Y
1514818655.9,286046993.3,P
1514818675.8,286047000.3,N
1514818695.6,286047002.7,N
1514818715.4,286047000.8,N
1514818735.2,286046999.9,N
1514818755.1,286047000.9,N
1514818756.0,286047000.9,N
1514818775.8,286046999.0,N
1514818795.6,286046998.2,N
